Total_Precipitation_Accumulation
0.00 0.00 0.02 0.01 0.00 0.01 0.03 0.02 0.02 0.04 0.05 0.07 0.06 0.06 0.08 0.10 0.07 0.03 0.01 0.01 0.01 0.02 0.05 0.04 0.05 0.05 0.04 0.04 0.04 0.02 0.01 0.00 0.00 0.00 0.00 0.00 0.00 0.00 0.00 0.00 0.01 0.00 0.00
0.00 0.00 0.02 0.01 0.01 0.01 0.03 0.04 0.04 0.04 0.03 0.03 0.05 0.09 0.13 0.12 0.10 0.04 0.01 0.01 0.01 0.01 0.02 0.03 0.03 0.04 0.04 0.04 0.03 0.02 0.00 0.00 0.00 0.00 0.00 0.00 0.00 0.00 0.00 0.00 0.01 0.00 0.00
0.00 0.00 0.01 0.01 0.01 0.00 0.01 0.03 0.06 0.06 0.04 0.02 0.05 0.09 0.11 0.11 0.10 0.08 0.07 0.02 0.01 0.00 0.00 0.01 0.01 0.03 0.02 0.02 0.02 0.01 0.00 0.00 0.00 0.00 0.00 0.01 0.00 0.00 0.00 0.00 0.00 0.00 0.00
0.00 0.00 0.00 0.01 0.01 0.00 0.01 0.02 0.06 0.07 0.03 0.04 0.11 0.12 0.08 0.10 0.10 0.09 0.08 0.04 0.03 0.00 0.00 0.01 0.01 0.03 0.02 0.01 0.00 0.00 0.00 0.00 0.00 0.01 0.01 0.06 0.05 0.01 0.00 0.01 0.01 0.00 0.00
0.00 0.00 0.00 0.01 0.01 0.01 0.01 0.02 0.04 0.05 0.04 0.04 0.09 0.09 0.06 0.09 0.11 0.09 0.08 0.08 0.08 0.04 0.01 0.02 0.02 0.03 0.02 0.01 0.01 0.01 0.00 0.00 0.00 0.00 0.02 0.08 0.11 0.05 0.01 0.03 0.04 0.04 0.02
0.00 0.00 0.00 0.01 0.01 0.01 0.01 0.01 0.03 0.04 0.03 0.02 0.03 0.06 0.06 0.11 0.16 0.14 0.10 0.12 0.13 0.11 0.05 0.02 0.02 0.03 0.02 0.01 0.01 0.01 0.01 0.01 0.00 0.00 0.01 0.05 0.16 0.13 0.05 0.11 0.18 0.17 0.14
0.00 0.00 0.00 0.01 0.01 0.00 0.00 0.01 0.02 0.02 0.02 0.01 0.01 0.02 0.02 0.06 0.11 0.11 0.10 0.11 0.11 0.10 0.08 0.06 0.04 0.03 0.04 0.04 0.03 0.03 0.04 0.05 0.03 0.02 0.02 0.05 0.17 0.12 0.09 0.25 0.36 0.31 0.26
0.00 0.00 0.01 0.01 0.01 0.00 0.00 0.00 0.01 0.01 0.01 0.01 0.00 0.00 0.01 0.03 0.05 0.06 0.07 0.07 0.05 0.04 0.05 0.06 0.08 0.08 0.06 0.05 0.05 0.05 0.05 0.05 0.05 0.05 0.04 0.08 0.11 0.09 0.17 0.31 0.38 0.35 0.30
0.00 0.00 0.00 0.01 0.01 0.00 0.00 0.00 0.00 0.01 0.01 0.00 0.00 0.00 0.01 0.02 0.02 0.04 0.06 0.06 0.05 0.05 0.06 0.07 0.07 0.06 0.06 0.06 0.05 0.04 0.04 0.04 0.05 0.08 0.10 0.18 0.22 0.21 0.32 0.38 0.38 0.35 0.34
0.00 0.00 0.00 0.00 0.01 0.01 0.00 0.00 0.01 0.00 0.00 0.01 0.01 0.01 0.01 0.01 0.01 0.02 0.05 0.05 0.05 0.05 0.05 0.06 0.07 0.07 0.07 0.07 0.08 0.09 0.07 0.04 0.02 0.03 0.13 0.18 0.22 0.33 0.44 0.48 0.52 0.48 0.49
0.00 0.00 0.00 0.00 0.01 0.01 0.00 0.00 0.00 0.00 0.00 0.00 0.01 0.01 0.01 0.01 0.02 0.05 0.02 0.03 0.04 0.05 0.05 0.05 0.07 0.07 0.07 0.07 0.12 0.17 0.13 0.11 0.06 0.04 0.08 0.13 0.15 0.29 0.44 0.52 0.58 0.61 0.64
0.00 0.00 0.00 0.00 0.00 0.00 0.00 0.00 0.00 0.00 0.00 0.00 0.01 0.03 0.03 0.04 0.05 0.04 0.03 0.05 0.08 0.16 0.18 0.19 0.18 0.11 0.11 0.09 0.32 0.45 0.14 0.17 0.17 0.12 0.10 0.09 0.15 0.32 0.47 0.46 0.50 0.58 0.60
0.00 0.00 0.00 0.00 0.00 0.00 0.00 0.00 0.00 0.00 0.01 0.00 0.00 0.02 0.03 0.03 0.01 0.02 0.04 0.09 0.12 0.15 0.22 0.41 0.47 0.32 0.30 0.30 0.31 0.32 0.09 0.07 0.13 0.11 0.16 0.19 0.20 0.35 0.52 0.43 0.36 0.45 0.57
0.00 0.00 0.00 0.00 0.00 0.00 0.00 0.00 0.00 0.00 0.00 0.00 0.00 0.00 0.01 0.01 0.01 0.03 0.11 0.14 0.14 0.11 0.18 0.24 0.45 0.27 0.18 0.17 0.19 0.18 0.16 0.16 0.13 0.19 0.29 0.20 0.18 0.25 0.44 0.40 0.32 0.32 0.45
0.00 0.00 0.00 0.00 0.00 0.00 0.00 0.00 0.00 0.00 0.00 0.00 0.00 0.00 0.01 0.01 0.02 0.06 0.11 0.18 0.11 0.09 0.14 0.17 0.16 0.19 0.25 0.29 0.21 0.17 0.18 0.17 0.23 0.37 0.43 0.28 0.19 0.19 0.26 0.31 0.35 0.32 0.29
0.00 0.00 0.00 0.00 0.00 0.00 0.00 0.00 0.00 0.00 0.00 0.00 0.00 0.00 0.00 0.01 0.04 0.11 0.16 0.21 0.14 0.16 0.22 0.27 0.24 0.39 0.39 0.30 0.18 0.15 0.11 0.09 0.10 0.16 0.23 0.23 0.14 0.14 0.17 0.19 0.25 0.29 0.24
0.00 0.00 0.00 0.00 0.00 0.00 0.00 0.00 0.01 0.01 0.01 0.01 0.01 0.01 0.01 0.03 0.10 0.22 0.25 0.25 0.27 0.27 0.35 0.43 0.39 0.37 0.32 0.22 0.13 0.11 0.09 0.07 0.04 0.03 0.03 0.05 0.07 0.06 0.08 0.11 0.17 0.23 0.20
0.03 0.05 0.04 0.02 0.02 0.02 0.02 0.02 0.05 0.07 0.05 0.03 0.03 0.03 0.06 0.08 0.18 0.39 0.36 0.34 0.47 0.40 0.50 0.65 0.55 0.44 0.38 0.26 0.18 0.11 0.06 0.04 0.02 0.02 0.01 0.02 0.04 0.03 0.04 0.08 0.12 0.14 0.16
0.12 0.15 0.13 0.09 0.05 0.05 0.04 0.08 0.16 0.20 0.17 0.11 0.10 0.13 0.17 0.20 0.28 0.48 0.48 0.55 0.54 0.59 0.63 0.48 0.64 0.59 0.49 0.42 0.24 0.20 0.10 0.06 0.04 0.04 0.03 0.02 0.02 0.02 0.02 0.05 0.06 0.10 0.16
0.34 0.29 0.28 0.27 0.24 0.18 0.21 0.32 0.36 0.33 0.31 0.32 0.34 0.38 0.39 0.43 0.48 0.64 0.62 0.61 0.58 0.73 0.74 0.63 0.68 0.65 0.53 0.45 0.25 0.15 0.10 0.05 0.05 0.07 0.06 0.06 0.04 0.02 0.03 0.05 0.11 0.10 0.09
0.67 0.62 0.59 0.61 0.65 0.70 0.85 0.95 0.98 0.92 0.85 0.72 0.62 0.58 0.59 0.57 0.65 0.79 0.72 0.79 0.69 0.71 0.71 0.63 0.77 0.78 0.65 0.57 0.40 0.22 0.08 0.04 0.06 0.10 0.15 0.16 0.11 0.07 0.05 0.06 0.09 0.10 0.12
0.82 0.91 0.87 0.81 0.82 0.85 1.11 1.46 1.65 1.71 1.51 1.17 0.96 0.86 0.77 0.72 0.75 0.78 0.81 0.72 0.69 0.71 0.73 0.74 0.81 0.70 0.57 0.55 0.53 0.44 0.22 0.13 0.12 0.18 0.30 0.31 0.21 0.11 0.07 0.07 0.09 0.11 0.11
0.70 0.71 0.66 0.65 0.72 0.78 0.95 1.23 1.44 1.70 1.70 1.45 1.17 1.04 0.95 0.86 0.77 0.76 0.76 0.71 0.71 0.72 0.80 0.88 0.77 0.68 0.58 0.57 0.59 0.64 0.49 0.32 0.18 0.08 0.11 0.18 0.22 0.19 0.14 0.12 0.10 0.11 0.11
0.50 0.50 0.52 0.60 0.71 0.83 0.97 1.16 1.41 1.67 1.66 1.57 1.46 1.26 1.07 0.90 0.76 0.71 0.68 0.66 0.68 0.70 0.81 0.77 0.75 0.83 0.80 0.73 0.74 0.75 0.70 0.60 0.47 0.18 0.07 0.13 0.21 0.24 0.22 0.17 0.13 0.12 0.11
0.50 0.55 0.60 0.69 0.81 0.92 1.02 1.11 1.27 1.63 1.63 1.46 1.31 1.15 1.02 0.88 0.79 0.74 0.69 0.66 0.64 0.66 0.74 0.75 0.87 0.87 0.88 0.86 0.81 0.77 0.79 0.77 0.70 0.52 0.24 0.18 0.20 0.20 0.21 0.18 0.18 0.17 0.18
0.51 0.57 0.61 0.64 0.71 0.78 0.83 0.90 0.94 1.10 1.18 1.11 1.04 0.95 0.86 0.77 0.72 0.71 0.67 0.62 0.61 0.64 0.73 0.74 0.74 0.74 0.76 0.80 0.74 0.68 0.72 0.71 0.71 0.72 0.53 0.41 0.34 0.29 0.31 0.29 0.27 0.29 0.27